Location: G?julap?du
(16.5372°N, 81.0979°E)
Time: 15:42:08
(UTC+00:00)

Meteor 1-24 Rocket - Pass Details

Date: 14 April 2026
Orbit: 790 x 925 km, 81.2° (Epoch: 10 May)

Event Time Altitude Azimuth Distance (km) Brightness Sun altitude
Rises 13:38:20 0° 5° (N) 3,390 7.0 -12.0°
Reaches altitude 10° 13:40:51 10° 13° (NNE) 2,476 6.2 -12.5°
Maximum altitude 13:46:09 42° 83° (E) 1,221 4.1 -13.8°
Drops below altitude 10° 13:51:37 10° 153° (SSE) 2,557 5.8 -15.0°
Enters shadow 13:52:29 - 156° (SSE) 2,867 6.1 -15.2°
